Weather History for KMOX - May, 2013

Change the Weather History Date:

Tuesday, May 7, 2013

  Actual Average Record
Temperature  
Mean Temperature 60 °F -  
Max Temperature 78 °F 61 °F 78 °F (2013)
Min Temperature 42 °F 39 °F 33 °F (2003)
Degree Days  
Heating Degree Days 5    
Growing Degree Days 10 (Base 50)    
Moisture  
Dew Point 43 °F    
Average Humidity 54    
Maximum Humidity 93    
Minimum Humidity 26    
Precipitation  
Precipitation 0.00 in - - ()
Sea Level Pressure  
Sea Level Pressure 29.99 in    
Wind  
Wind Speed 6 mph (South)    
Max Wind Speed 15 mph    
Max Gust Speed 24 mph    
Visibility 10 miles    
Events      
Averages and records for this station are not official NWS values.
T = Trace of Precipitation, MM = Missing Value Source: NWS Daily Summary

Daily Weather History Graph

Daily Weather History Graph

Search for Another Location

Airport or City:

Trip Planner

Search our weather history database for the weather conditions in past years. The results will help you decide how hot, cold, wet, or windy it might be!

Date:

Astronomy

May. 07, 2013 Rise Set
Actual Time 6:02 AM CDT 8:38 PM CDT
Civil Twilight 5:29 AM CDT 9:12 PM CDT
Nautical Twilight 4:46 AM CDT 9:54 PM CDT
Astronomical Twilight 3:58 AM CDT 10:43 PM CDT
Moon 4:44 AM CDT (5/7) 6:34 PM CDT (5/7)
Length of Visible Light 15h 43m
Length of Day
14h 35m
Waning Crescent, 5% of the Moon is Illuminated
May 7
Waning Crescent
May 9
New
May 17
First Quarter
May 24
Full
May 31
Last Quarter

Hourly Weather History & Observations

Time (CDT) Temp. Windchill Dew Point Humidity Pressure Visibility Wind Dir Wind Speed Gust Speed Precip Events Conditions
12:12 AM 51.8 °F - 44.6 °F 76% 30.04 in 10.0 mi SE 4.6 mph - N/A   Clear
12:32 AM 50.0 °F - 44.6 °F 82% 30.04 in 10.0 mi ESE 5.8 mph - N/A   Clear
12:52 AM 50.0 °F - 44.6 °F 82% 30.04 in 10.0 mi SE 5.8 mph - N/A   Clear
1:12 AM 50.0 °F - 42.8 °F 76% 30.04 in 10.0 mi SE 4.6 mph - N/A   Clear
1:32 AM 48.2 °F - 42.8 °F 82% 30.03 in 10.0 mi SE 4.6 mph - N/A   Clear
1:52 AM 48.2 °F - 42.8 °F 82% 30.03 in 10.0 mi SE 4.6 mph - N/A   Clear
2:12 AM 48.2 °F - 44.6 °F 87% 30.03 in 10.0 mi SSE 4.6 mph - N/A   Clear
2:32 AM 48.2 °F - 42.8 °F 82% 30.03 in 10.0 mi SE 4.6 mph - N/A   Clear
3:12 AM 46.4 °F 44.3 °F 42.8 °F 87% 30.03 in 10.0 mi ESE 4.6 mph - N/A   Clear
3:32 AM 46.4 °F 44.3 °F 42.8 °F 87% 30.02 in 10.0 mi SE 4.6 mph - N/A   Clear
3:52 AM 44.6 °F 42.2 °F 42.8 °F 93% 30.02 in 10.0 mi SE 4.6 mph - N/A   Clear
4:12 AM 44.6 °F - 42.8 °F 93% 30.03 in 10.0 mi Calm Calm - N/A   Clear
4:32 AM 44.6 °F 42.2 °F 42.8 °F 93% 30.03 in 7.0 mi South 4.6 mph - N/A   Clear
4:52 AM 42.8 °F 39.3 °F 39.2 °F 87% 30.04 in 7.0 mi South 5.8 mph - N/A   Clear
5:12 AM 42.8 °F 40.1 °F 39.2 °F 87% 30.04 in 7.0 mi South 4.6 mph - N/A   Clear
5:32 AM 42.8 °F 39.3 °F 41.0 °F 93% 30.04 in 7.0 mi South 5.8 mph - N/A   Clear
5:52 AM 42.8 °F 40.1 °F 39.2 °F 87% 30.04 in 7.0 mi South 4.6 mph - N/A   Clear
6:12 AM 42.8 °F 41.1 °F 39.2 °F 87% 30.04 in 5.0 mi SSE 3.5 mph - N/A   Clear
6:32 AM 42.8 °F 40.1 °F 39.2 °F 87% 30.04 in 5.0 mi South 4.6 mph - N/A   Clear
6:52 AM 42.8 °F 41.1 °F 39.2 °F 87% 30.04 in 5.0 mi SSE 3.5 mph - N/A   Clear
7:12 AM 46.4 °F - 42.8 °F 87% 30.05 in 7.0 mi Calm Calm - N/A   Clear
7:32 AM 48.2 °F - 44.6 °F 87% 30.05 in 10.0 mi East 3.5 mph - N/A   Clear
7:52 AM 51.8 °F - 44.6 °F 76% 30.04 in 10.0 mi ESE 3.5 mph - N/A   Clear
8:12 AM 53.6 °F - 44.6 °F 72% 30.05 in 10.0 mi SE 3.5 mph - N/A   Clear
8:32 AM 55.4 °F - 46.4 °F 72% 30.05 in 10.0 mi ESE 4.6 mph - N/A   Clear
8:52 AM 59.0 °F - 48.2 °F 67% 30.04 in 10.0 mi SE 4.6 mph - N/A   Clear
9:12 AM 60.8 °F - 46.4 °F 59% 30.04 in 10.0 mi SE 4.6 mph - N/A   Clear
9:32 AM 62.6 °F - 46.4 °F 55% 30.04 in 10.0 mi SSE 4.6 mph - N/A   Clear
9:52 AM 64.4 °F - 46.4 °F 52% 30.04 in 10.0 mi South 6.9 mph - N/A   Clear
10:12 AM 66.2 °F - 46.4 °F 49% 30.04 in 10.0 mi SSE 8.1 mph - N/A   Clear
10:32 AM 66.2 °F - 44.6 °F 46% 30.03 in 10.0 mi SSE 11.5 mph - N/A   Clear
10:52 AM 68.0 °F - 44.6 °F 43% 30.03 in 10.0 mi South 9.2 mph 17.3 mph N/A   Clear
11:12 AM 69.8 °F - 44.6 °F 40% 30.02 in 10.0 mi SSE 11.5 mph 17.3 mph N/A   Clear
11:32 AM 69.8 °F - 42.8 °F 38% 30.02 in 10.0 mi SSE 10.4 mph - N/A   Clear
11:52 AM 71.6 °F - 42.8 °F 35% 30.01 in 10.0 mi South 10.4 mph 17.3 mph N/A   Clear
12:12 PM 71.6 °F - 41.0 °F 33% 30.01 in 10.0 mi SSE 10.4 mph 24.2 mph N/A   Clear
12:52 PM 73.4 °F - 39.2 °F 29% 30.00 in 10.0 mi SSW 9.2 mph 16.1 mph N/A   Clear
1:12 PM 73.4 °F - 39.2 °F 29% 29.99 in 10.0 mi South 15.0 mph 18.4 mph N/A   Clear
1:32 PM 75.2 °F - 39.2 °F 27% 29.99 in 10.0 mi South 10.4 mph 17.3 mph N/A   Clear
1:52 PM 75.2 °F - 39.2 °F 27% 29.98 in 10.0 mi South 3.5 mph 16.1 mph N/A   Clear
2:12 PM 75.2 °F - 39.2 °F 27% 29.98 in 10.0 mi South 13.8 mph 18.4 mph N/A   Clear
2:32 PM 77.0 °F - 39.2 °F 26% 29.97 in 10.0 mi SSW 12.7 mph 18.4 mph N/A   Clear
2:52 PM 75.2 °F - 39.2 °F 27% 29.97 in 10.0 mi SSW 10.4 mph 19.6 mph N/A   Clear
3:12 PM 77.0 °F - 39.2 °F 26% 29.96 in 10.0 mi South 10.4 mph 16.1 mph N/A   Clear
3:32 PM 77.0 °F - 39.2 °F 26% 29.96 in 10.0 mi SSW 5.8 mph 18.4 mph N/A   Clear
3:52 PM 78.8 °F - 41.0 °F 26% 29.95 in 10.0 mi SSW 11.5 mph 16.1 mph N/A   Clear
4:12 PM 78.8 °F - 41.0 °F 26% 29.95 in 10.0 mi South 12.7 mph 18.4 mph N/A   Scattered Clouds
4:32 PM 78.8 °F - 42.8 °F 28% 29.94 in 10.0 mi SSW 15.0 mph - N/A   Scattered Clouds
4:52 PM 78.8 °F - 41.0 °F 26% 29.94 in 10.0 mi SW 8.1 mph 19.6 mph N/A   Clear
5:12 PM 77.0 °F - 41.0 °F 28% 29.93 in 10.0 mi South 8.1 mph 16.1 mph N/A   Clear
5:32 PM 77.0 °F - 41.0 °F 28% 29.93 in 10.0 mi SSW 8.1 mph 17.3 mph N/A   Clear
5:52 PM 77.0 °F - 41.0 °F 28% 29.93 in 10.0 mi SW 9.2 mph - N/A   Scattered Clouds
6:12 PM 75.2 °F - 39.2 °F 27% 29.93 in 10.0 mi SSW 8.1 mph - N/A   Scattered Clouds
6:32 PM 75.2 °F - 41.0 °F 29% 29.92 in 10.0 mi SW 8.1 mph - N/A   Clear
6:52 PM 73.4 °F - 41.0 °F 31% 29.92 in 10.0 mi SW 5.8 mph - N/A   Scattered Clouds
7:12 PM 73.4 °F - 42.8 °F 33% 29.92 in 10.0 mi SSW 10.4 mph - N/A   Scattered Clouds
7:32 PM 73.4 °F - 42.8 °F 33% 29.92 in 10.0 mi SSW 8.1 mph - N/A   Scattered Clouds
7:52 PM 71.6 °F - 42.8 °F 35% 29.92 in 10.0 mi SSW 9.2 mph - N/A   Scattered Clouds
8:12 PM 69.8 °F - 42.8 °F 38% 29.92 in 10.0 mi SSW 5.8 mph - N/A   Scattered Clouds
8:32 PM 69.8 °F - 42.8 °F 38% 29.92 in 10.0 mi SW 5.8 mph - N/A   Overcast
8:52 PM 68.0 °F - 42.8 °F 40% 29.92 in 10.0 mi SSW 3.5 mph - N/A   Overcast
9:12 PM 66.2 °F - 42.8 °F 43% 29.93 in 10.0 mi Calm Calm - N/A   Mostly Cloudy
9:32 PM 66.2 °F - 42.8 °F 43% 29.93 in 10.0 mi WSW 4.6 mph - N/A   Mostly Cloudy
9:52 PM 66.2 °F - 44.6 °F 46% 29.94 in 10.0 mi SW 6.9 mph - N/A   Overcast
10:12 PM 66.2 °F - 44.6 °F 46% 29.94 in 10.0 mi WSW 4.6 mph - N/A   Mostly Cloudy
10:32 PM 64.4 °F - 44.6 °F 49% 29.94 in 10.0 mi West 5.8 mph - N/A   Mostly Cloudy
10:52 PM 64.4 °F - 46.4 °F 52% 29.94 in 10.0 mi WNW 3.5 mph - N/A   Overcast
11:12 PM 62.6 °F - 46.4 °F 55% 29.94 in 10.0 mi Calm Calm - N/A   Overcast
11:32 PM 62.6 °F - 46.4 °F 55% 29.93 in 10.0 mi Calm Calm - N/A   Overcast
11:52 PM 62.6 °F - 46.4 °F 55% 29.93 in 10.0 mi East 3.5 mph - N/A   Overcast